Temperature
13 13 13 13 13 13 13 13 13 13 14 14 15 15 15 16 16 16 16 16 16 16 16 16 16 16 16 16 15 15 14 14 14 13 12 12 11 12
13 13 13 13 13 13 13 13 13 13 13 14 14 14 15 15 15 15 15 15 15 16 15 15 15 15 15 15 15 15 14 14 14 13 12 12 12 12
13 13 13 13 13 13 13 13 13 13 13 13 14 14 14 15 14 14 14 15 15 15 15 15 15 15 15 15 15 14 14 14 13 13 12 12 13 13
12 12 12 12 12 12 12 13 13 13 13 13 14 14 14 14 14 14 14 14 14 14 14 14 14 14 14 14 14 14 14 13 13 12 12 13 13 14
11 12 12 11 11 11 12 12 12 12 13 13 13 14 14 14 14 14 14 14 14 14 14 14 14 14 14 14 14 14 13 13 13 13 13 13 14 15
11 11 11 11 11 11 12 12 12 12 12 12 12 13 13 13 13 13 14 14 14 14 14 14 14 14 14 14 14 14 14 14 14 14 14 14 15 15
11 11 11 11 11 11 11 11 11 11 11 12 12 12 12 12 12 13 13 13 13 14 14 14 14 14 14 14 14 14 14 14 14 14 14 15 15 15
10 11 11 11 11 11 11 11 11 11 11 11 11 11 11 11 12 12 12 13 13 13 13 14 14 14 14 14 14 14 13 13 14 14 15 15 15 15
11 11 11 11 11 11 11 11 11 11 11 11 11 11 11 11 11 11 12 12 12 12 12 13 13 14 14 14 14 14 14 14 14 14 14 15 15 15
11 11 11 11 11 11 11 12 12 12 11 11 11 11 11 11 11 11 11 11 11 11 12 12 12 13 13 13 14 14 14 14 14 14 14 14 15 15
11 11 11 10 10 11 11 11 11 11 11 11 11 11 11 11 11 11 11 11 11 11 11 11 11 12 12 12 13 13 13 14 14 14 14 14 14 14
10 10 10 10 10 10 10 11 11 11 11 11 11 11 11 11 11 11 11 11 11 11 11 11 11 11 11 12 12 12 12 13 13 13 13 14 14 14
10 10 9 9 9 9 10 10 10 10 10 11 11 11 11 11 11 11 11 11 11 11 11 11 11 11 11 11 11 11 11 12 12 12 12 13 13 13
9 9 9 9 9 9 9 9 9 9 10 10 10 10 10 10 10 10 10 11 11 11 11 11 11 11 11 11 11 11 11 11 11 11 11 11 12 12
8 8 8 9 9 9 8 8 9 9 9 9 9 9 9 9 9 10 10 10 11 11 11 11 11 10 11 11 11 11 10 10 11 11 11 10 10 11
8 8 8 8 8 8 8 8 8 8 8 8 8 8 8 8 9 9 9 9 10 10 10 10 10 10 10 10 11 11 10 10 10 10 10 10 10 10
8 8 8 8 8 8 8 7 7 7 7 7 7 7 7 7 8 8 8 8 9 9 9 9 9 9 10 10 10 10 10 10 10 10 10 9 9 9
8 8 8 8 7 7 7 7 7 6 6 6 6 6 6 6 6 7 7 7 8 8 8 8 8 9 9 9 9 10 10 10 10 10 9 9 9 9
8 8 8 7 7 7 7 6 6 6 5 5 5 5 5 5 5 5 6 6 6 6 7 7 7 7 8 8 8 8 8 8 9 9 9 9 9 8
8 8 7 7 7 7 6 6 5 5 5 4 4 4 4 4 4 4 5 5 5 5 6 6 6 6 6 6 7 7 7 7 8 8 9 8 8 8
8 7 7 7 7 6 6 6 5 5 4 4 4 3 3 3 3 3 4 4 4 4 4 5 5 5 6 6 6 6 6 6 6 7 8 8 7 8
8 7 7 7 7 6 6 5 5 4 4 4 3 3 3 3 3 3 3 3 3 3 3 4 4 4 5 5 5 6 6 6 6 6 7 7 7 7
8 7 7 7 7 6 6 5 5 4 4 3 3 3 2 2 2 2 2 2 2 2 3 3 3 3 3 4 4 5 5 5 5 6 6 6 6 7
Wind_Speed
2 3 2 3 3 2 1 1 2 3 3 3 4 4 3 3 3 3 3 4 5 5 7 7 7 6 8 15 17 22 30 33 33 32 31 30 25 24
2 3 3 3 3 3 3 2 1 2 3 3 4 4 4 3 4 4 4 5 5 5 4 3 3 3 6 12 19 26 31 32 31 29 27 25 23 23
4 4 5 4 4 4 3 3 2 2 5 5 3 4 4 4 3 3 5 4 3 4 3 1 2 5 8 13 20 26 30 31 30 28 26 24 23 23
5 5 6 4 5 4 3 3 2 2 3 6 3 3 4 3 3 4 4 4 3 5 4 2 4 6 9 13 18 23 26 27 28 27 26 24 24 24
6 6 5 4 4 3 4 5 4 3 2 3 3 2 2 2 2 3 4 3 3 3 4 4 6 8 11 15 19 24 26 27 28 27 26 26 27 26
6 6 5 4 4 4 4 5 6 5 4 3 2 3 3 3 2 2 3 2 1 1 2 4 7 10 12 14 16 20 24 26 27 27 28 28 28 27
7 7 7 6 5 3 3 4 5 5 5 4 4 4 4 4 3 2 2 1 0 0 1 2 4 5 8 12 13 15 17 20 21 22 23 24 24 25
8 8 7 9 9 9 9 7 6 5 5 5 4 5 6 5 5 4 2 0 1 1 1 1 2 4 5 8 13 16 18 18 19 20 21 21 22 24
8 8 8 9 11 9 9 10 10 10 8 3 4 4 5 5 7 6 5 3 2 2 1 0 0 1 2 4 9 14 17 19 20 21 22 23 25 26
7 6 7 9 10 9 9 11 11 11 10 6 4 5 5 6 4 3 3 3 3 4 4 1 2 1 1 2 4 4 9 14 17 20 22 23 24 25
6 7 8 8 13 14 12 11 11 11 11 13 11 9 10 11 9 5 5 5 4 3 3 2 2 2 2 1 1 1 3 6 10 13 16 19 21 21
5 6 10 10 11 12 9 9 9 7 8 10 11 10 10 10 12 9 6 4 2 2 2 2 2 2 2 1 1 2 3 4 5 6 9 12 14 12
4 4 6 10 11 11 9 6 5 5 5 7 8 8 8 9 10 9 7 4 3 2 1 1 1 1 1 1 1 1 2 2 2 2 4 7 9 10
3 3 4 8 10 10 8 9 10 8 6 7 7 7 7 7 8 8 7 6 4 4 5 2 2 1 0 1 2 1 1 1 1 2 2 3 6 10
3 6 7 9 8 7 10 11 9 7 7 7 7 6 6 7 7 7 7 4 3 6 9 5 4 3 2 2 2 2 2 2 1 1 1 2 2 3
3 5 7 10 9 8 7 7 7 7 6 6 6 6 7 7 8 7 6 6 5 7 10 12 8 5 4 3 2 2 3 2 1 1 0 1 1 1
2 3 4 4 5 6 6 6 6 7 7 6 6 7 7 8 7 7 6 6 6 6 8 9 9 6 5 5 3 3 3 2 1 1 1 1 1 2
3 3 4 4 4 4 4 4 4 5 5 5 5 5 5 6 6 6 6 7 7 7 8 8 9 6 3 1 3 6 6 4 2 2 2 2 1 1
3 4 4 3 3 3 2 2 2 3 4 4 5 6 6 5 5 6 6 6 7 7 7 6 7 7 6 5 5 8 7 6 5 2 2 2 2 3
3 3 3 3 3 2 2 1 1 3 3 4 5 5 5 5 5 6 7 7 7 7 8 7 7 6 4 5 4 4 6 5 4 3 1 1 0 0
4 4 4 4 3 3 2 1 0 1 2 3 4 5 5 5 5 6 6 7 7 7 8 8 8 10 6 4 3 2 2 4 3 2 2 1 1 2
6 6 5 4 4 3 3 2 2 1 0 1 2 3 4 4 5 6 6 6 6 6 7 7 8 7 5 5 6 4 3 3 3 3 2 1 2 3
7 7 6 5 5 4 4 4 4 3 2 1 1 2 3 3 4 4 5 5 6 7 8 8 8 6 6 6 7 6 5 3 2 1 1 4 8 9
Wind_Direction
12 16 8 360 3 354 305 234 254 297 306 304 306 308 289 260 221 210 227 251 274 303 304 302 310 288 215 196 189 173 166 168 172 179 181 178 181 182
353 17 12 349 345 353 1 352 276 259 279 275 265 277 280 262 224 223 239 255 279 304 296 305 3 57 138 158 159 157 160 166 173 179 178 177 183 186
9 33 29 14 7 359 358 359 328 277 271 279 264 269 268 258 229 221 233 238 260 270 256 224 104 113 134 148 155 160 164 169 172 173 175 185 189 187
25 38 31 32 30 11 5 8 342 294 266 282 281 278 269 257 232 221 235 237 239 244 223 169 130 133 140 148 157 159 161 162 165 172 184 194 192 193
36 34 23 18 18 8 7 2 344 321 274 274 294 303 303 302 255 223 231 240 246 231 193 155 136 134 137 141 146 149 152 159 169 181 193 196 195 199
29 19 5 357 349 351 359 357 353 352 345 337 331 329 320 314 295 254 228 213 248 202 139 137 145 148 148 150 153 158 165 174 183 192 198 199 201 204
23 15 12 21 13 359 350 352 360 6 5 9 8 2 360 352 335 315 257 195 151 16 158 150 151 160 170 173 173 179 186 192 198 203 206 208 208 209
25 9 17 26 16 18 23 32 31 18 8 17 19 13 358 350 339 332 330 191 160 10 179 178 172 189 188 190 195 197 201 204 208 211 213 214 214 215
29 20 26 19 16 10 14 31 38 37 28 1 11 9 352 338 342 357 5 10 22 2 14 110 66 207 182 191 198 208 213 214 215 217 218 218 218 218
39 29 34 28 21 17 28 33 33 31 25 25 3 341 329 323 324 327 332 359 24 19 6 39 37 23 61 131 138 193 222 224 224 225 225 223 221 221
40 32 30 28 14 30 39 34 29 22 22 39 45 34 21 17 9 12 16 31 21 359 4 19 12 6 6 13 111 166 228 226 226 228 230 228 226 226
36 28 30 30 24 34 44 41 32 5 7 29 28 20 20 24 31 26 3 8 16 3 7 18 9 12 357 334 282 232 231 225 227 233 240 241 234 231
52 28 20 28 38 41 45 43 9 347 17 38 33 21 18 20 20 18 11 346 335 339 341 347 333 6 343 321 304 282 271 287 294 282 263 251 240 229
52 12 10 38 52 43 38 30 26 26 35 40 35 22 13 5 356 358 4 1 331 318 323 299 283 267 319 317 300 309 269 254 275 287 281 254 245 240
38 25 30 40 54 52 42 44 44 39 34 33 23 10 353 339 340 343 355 8 19 28 20 357 312 307 280 262 273 274 284 266 221 275 278 244 242 221
19 14 36 48 54 49 45 47 53 55 53 35 15 5 2 5 7 1 354 353 11 9 7 12 10 339 306 284 270 284 269 269 256 234 313 351 358 38
18 49 57 65 69 62 57 52 51 51 48 40 33 25 19 18 16 8 7 8 19 14 9 4 355 346 311 314 347 360 338 307 255 204 178 101 57 88
99 97 95 98 99 93 83 63 45 38 29 26 31 30 22 20 19 21 22 25 25 20 18 13 2 353 332 23 23 13 11 353 318 220 182 154 155 205
117 130 132 135 130 121 96 65 34 10 3 12 14 11 8 9 13 15 18 18 16 14 14 15 17 6 356 352 16 37 15 351 340 301 205 180 190 206
173 172 172 171 173 176 169 114 24 18 24 24 20 17 15 13 12 8 8 8 7 5 6 12 12 358 341 331 339 8 16 354 345 353 12 36 310 263
199 205 202 196 200 202 197 184 99 44 38 28 23 21 18 18 14 7 360 354 355 352 350 348 338 321 298 281 284 343 17 13 349 338 18 355 238 220
208 212 212 209 207 208 207 208 215 224 296 15 24 23 22 26 21 14 12 5 357 348 337 336 338 343 347 334 323 322 344 351 358 24 73 307 276 247
219 220 219 212 209 208 208 215 223 233 234 242 321 357 8 13 9 5 0 360 358 357 351 348 351 351 347 342 335 324 317 309 293 310 293 305 303 292
Height
1488 1487 1488 1487 1486 1485 1485 1485 1485 1483 1481 1480 1481 1481 1481 1479 1478 1477 1477 1476 1476 1475 1472 1471 1469 1466 1465 1466 1470 1473 1477 1482 1488 1493 1499 1505 1513 1519
1486 1486 1487 1487 1486 1485 1483 1482 1482 1482 1480 1478 1478 1478 1477 1476 1475 1474 1473 1473 1473 1471 1470 1468 1467 1465 1464 1465 1468 1471 1475 1480 1486 1490 1496 1502 1510 1517
1487 1485 1485 1485 1485 1484 1481 1480 1479 1478 1477 1475 1475 1475 1473 1472 1471 1470 1470 1470 1470 1469 1468 1466 1465 1465 1464 1465 1467 1470 1474 1478 1483 1488 1494 1501 1508 1515
1487 1485 1484 1484 1483 1481 1480 1478 1476 1475 1475 1473 1472 1471 1470 1469 1468 1467 1467 1468 1468 1467 1466 1465 1464 1464 1464 1465 1467 1469 1472 1476 1481 1487 1494 1500 1507 1513
1487 1485 1484 1483 1481 1480 1479 1477 1475 1473 1472 1471 1469 1468 1466 1465 1465 1464 1464 1465 1466 1466 1466 1465 1464 1464 1464 1465 1467 1470 1473 1477 1482 1488 1494 1500 1505 1510
1488 1486 1485 1484 1482 1481 1479 1476 1473 1471 1470 1469 1468 1466 1464 1462 1461 1461 1461 1462 1463 1464 1464 1465 1465 1465 1466 1467 1469 1472 1476 1480 1485 1490 1494 1499 1503 1507
1490 1488 1487 1486 1484 1483 1480 1477 1474 1471 1470 1469 1467 1465 1464 1462 1460 1458 1458 1458 1459 1460 1462 1464 1465 1466 1468 1469 1471 1474 1478 1481 1485 1489 1493 1496 1499 1503
1492 1491 1491 1489 1487 1484 1481 1478 1475 1473 1472 1470 1468 1466 1464 1462 1460 1457 1455 1455 1456 1458 1460 1462 1463 1466 1467 1469 1471 1474 1477 1480 1483 1486 1489 1492 1494 1497
1496 1495 1494 1492 1489 1486 1483 1480 1478 1476 1474 1473 1471 1469 1467 1465 1461 1458 1455 1454 1454 1455 1456 1458 1460 1463 1465 1467 1470 1472 1474 1477 1479 1481 1483 1486 1488 1491
1498 1498 1496 1493 1490 1488 1485 1482 1480 1478 1477 1475 1474 1472 1470 1468 1466 1462 1459 1457 1456 1455 1455 1456 1457 1459 1462 1464 1467 1469 1471 1472 1474 1475 1477 1479 1481 1484
1500 1499 1497 1494 1492 1489 1487 1484 1482 1481 1480 1478 1476 1474 1473 1471 1469 1466 1463 1460 1459 1458 1457 1456 1456 1457 1459 1461 1463 1465 1467 1468 1469 1471 1472 1473 1475 1477
1500 1499 1497 1494 1492 1490 1488 1486 1485 1484 1482 1481 1479 1477 1475 1473 1471 1468 1466 1464 1462 1461 1460 1459 1458 1457 1458 1459 1460 1461 1462 1464 1465 1466 1467 1469 1470 1471
1499 1498 1496 1494 1492 1490 1489 1487 1486 1485 1483 1481 1479 1478 1476 1474 1472 1470 1468 1466 1464 1463 1463 1461 1460 1459 1458 1458 1458 1458 1458 1459 1460 1461 1463 1464 1465 1466
1498 1496 1495 1493 1491 1490 1489 1488 1486 1485 1483 1481 1479 1478 1476 1474 1473 1472 1470 1468 1466 1465 1463 1462 1461 1459 1458 1457 1457 1456 1456 1456 1456 1456 1457 1458 1459 1459
1496 1495 1494 1492 1491 1490 1489 1488 1486 1484 1483 1481 1479 1477 1476 1475 1473 1472 1471 1469 1467 1465 1463 1462 1461 1459 1458 1457 1456 1455 1454 1454 1454 1454 1454 1453 1453 1453
1494 1494 1493 1492 1491 1490 1489 1488 1486 1485 1483 1481 1480 1478 1477 1475 1473 1471 1469 1467 1465 1464 1463 1461 1459 1459 1458 1457 1455 1453 1453 1452 1452 1452 1452 1451 1449 1448
1493 1493 1493 1492 1492 1491 1490 1488 1487 1485 1484 1482 1480 1478 1477 1475 1473 1471 1469 1466 1464 1462 1461 1460 1459 1458 1457 1456 1454 1452 1451 1451 1450 1450 1449 1449 1447 1445
1493 1493 1493 1492 1492 1491 1490 1489 1487 1485 1483 1481 1480 1478 1476 1474 1473 1471 1469 1467 1465 1463 1461 1459 1458 1457 1456 1455 1454 1452 1450 1450 1449 1449 1448 1447 1446 1444
1493 1493 1493 1492 1492 1491 1490 1489 1487 1485 1482 1480 1479 1477 1475 1474 1472 1471 1469 1468 1466 1464 1462 1460 1459 1457 1455 1454 1452 1451 1449 1448 1448 1447 1446 1446 1445 1445
1493 1493 1493 1492 1492 1491 1490 1488 1486 1484 1482 1481 1479 1477 1475 1473 1472 1470 1469 1467 1466 1464 1462 1460 1458 1457 1455 1454 1451 1449 1448 1447 1446 1445 1444 1444 1445 1445
1492 1492 1492 1492 1491 1491 1490 1488 1486 1484 1483 1481 1479 1477 1475 1473 1472 1470 1469 1467 1465 1463 1461 1459 1457 1456 1454 1452 1450 1448 1446 1445 1444 1443 1442 1442 1443 1443
1490 1490 1491 1491 1490 1489 1488 1487 1486 1484 1482 1481 1479 1476 1474 1473 1471 1470 1468 1466 1465 1463 1460 1458 1456 1453 1451 1449 1447 1444 1443 1442 1442 1441 1440 1441 1440 1441
1488 1488 1488 1488 1488 1487 1486 1485 1484 1483 1481 1480 1478 1476 1474 1472 1470 1469 1467 1466 1464 1462 1459 1457 1454 1452 1449 1447 1444 1442 1440 1440 1440 1439 1438 1438 1438 1438